DHK511 EDDP-EGNX

Flight info

Callsign DHK511
Flight time N/A
Altitude 34000
Route PENEM1N PENEM Y233 EMBOX L986 POVEL DCT GALSO Q63 ERING L179 LAM L610 HEMEL
Aircraft B77L/H-SDE1E2E3FGHIJ2J3J4J5M1RWXY/LB1D1

Departure

Time 2026-05-04 02:36
Airport Leipzig/Halle Airport (EDDP)

Arrival

Time N/A
Airport East Midlands Airport (EGNX)
Time Latitude Longitude Altitude Speed Heading
2026-05-04 02:09 51.40890 12.23375 471 ft 0 kts 86°
2026-05-04 02:25 51.40889 12.23353 465 ft 4 kts 77°
2026-05-04 02:26 51.40879 12.23315 466 ft 4 kts 44°
2026-05-04 02:26 51.40857 12.23296 471 ft 4 kts
2026-05-04 02:26 51.40843 12.23295 473 ft 1 kts 356°
2026-05-04 02:26 51.40842 12.23296 474 ft 2 kts 356°
2026-05-04 02:28 51.40845 12.23295 480 ft 2 kts 356°
2026-05-04 02:28 51.40884 12.23291 476 ft 9 kts 356°
2026-05-04 02:29 51.40946 12.23284 469 ft 9 kts 356°
2026-05-04 02:29 51.41009 12.23280 469 ft 9 kts
2026-05-04 02:29 51.41038 12.23364 469 ft 9 kts 82°
2026-05-04 02:29 51.41043 12.23465 473 ft 9 kts 86°
2026-05-04 02:30 51.41047 12.23566 470 ft 9 kts 86°
2026-05-04 02:30 51.41051 12.23668 475 ft 9 kts 86°
2026-05-04 02:30 51.41056 12.23777 475 ft 10 kts 86°
2026-05-04 02:30 51.41062 12.23897 470 ft 11 kts 85°
2026-05-04 02:31 51.41069 12.24025 470 ft 12 kts 85°
2026-05-04 02:31 51.41076 12.24157 470 ft 12 kts 85°
2026-05-04 02:31 51.41081 12.24244 474 ft 12 kts 85°
2026-05-04 02:31 51.41086 12.24377 470 ft 12 kts 87°
2026-05-04 02:32 51.41093 12.24554 472 ft 12 kts 86°
2026-05-04 02:32 51.41097 12.24641 471 ft 12 kts 85°
2026-05-04 02:32 51.41103 12.24774 469 ft 12 kts 85°
2026-05-04 02:32 51.41112 12.24949 476 ft 12 kts 85°
2026-05-04 02:33 51.41117 12.25039 472 ft 12 kts 85°
2026-05-04 02:33 51.41124 12.25177 476 ft 13 kts 86°
2026-05-04 02:33 51.41130 12.25320 477 ft 13 kts 86°
2026-05-04 02:33 51.41161 12.25448 476 ft 13 kts 31°
2026-05-04 02:34 51.41250 12.25442 473 ft 13 kts 345°
2026-05-04 02:34 51.41329 12.25367 475 ft 13 kts 316°
2026-05-04 02:34 51.41384 12.25250 474 ft 13 kts 281°
2026-05-04 02:34 51.41383 12.25187 477 ft 0 kts 264°
2026-05-04 02:35 51.41378 12.25112 481 ft 23 kts 265°
2026-05-04 02:35 51.41349 12.24461 474 ft 93 kts 265°
2026-05-04 02:35 51.41285 12.23101 469 ft 150 kts 266°
2026-05-04 02:35 51.41213 12.21226 624 ft 177 kts 266°
2026-05-04 02:36 51.41116 12.19230 1114 ft 181 kts 265°
2026-05-04 02:36 51.40998 12.17287 1870 ft 170 kts 263°
2026-05-04 02:36 51.40875 12.15387 2408 ft 179 kts 263°
2026-05-04 02:36 51.40808 12.13267 2570 ft 203 kts 277°
2026-05-04 02:37 51.41403 12.11048 2762 ft 234 kts 301°
2026-05-04 02:37 51.42592 12.09132 3324 ft 253 kts 321°
2026-05-04 02:37 51.44274 12.08072 3959 ft 271 kts 348°
2026-05-04 02:37 51.46190 12.07990 4634 ft 281 kts 357°
2026-05-04 02:38 51.48177 12.08090 5301 ft 290 kts 356°
2026-05-04 02:38 51.50212 12.08157 6022 ft 294 kts 355°
2026-05-04 02:38 51.52238 12.08190 6744 ft 297 kts 355°
2026-05-04 02:38 51.54313 12.08226 7476 ft 299 kts 355°
2026-05-04 02:39 51.56396 12.08299 8230 ft 301 kts 356°
2026-05-04 02:39 51.58499 12.08379 8986 ft 303 kts 356°
2026-05-04 02:39 51.60615 12.08456 9727 ft 305 kts 355°
2026-05-04 02:39 51.62752 12.08529 10340 ft 312 kts 356°
2026-05-04 02:40 51.64998 12.08597 10564 ft 334 kts 356°
2026-05-04 02:40 51.67406 12.08668 10772 ft 358 kts 356°
2026-05-04 02:40 51.69919 12.08375 10886 ft 368 kts 339°
2026-05-04 02:40 51.72189 12.06502 11282 ft 369 kts 315°
2026-05-04 02:41 51.73980 12.03567 11830 ft 370 kts 306°
2026-05-04 02:41 51.75709 12.00424 12596 ft 378 kts 307°
2026-05-04 02:41 51.77471 11.97236 13473 ft 382 kts 307°
2026-05-04 02:41 51.79259 11.94023 14268 ft 387 kts 307°
2026-05-04 02:42 51.81077 11.90781 15047 ft 391 kts 307°
2026-05-04 02:42 51.82918 11.87505 15825 ft 395 kts 308°
2026-05-04 02:42 51.84766 11.84184 16596 ft 399 kts 306°
2026-05-04 02:42 51.86445 11.80614 17333 ft 400 kts 300°
2026-05-04 02:43 51.88021 11.76874 18070 ft 405 kts 300°
2026-05-04 02:43 51.89608 11.73091 18791 ft 407 kts 300°
2026-05-04 02:43 51.91211 11.69286 19515 ft 409 kts 300°
2026-05-04 02:43 51.92824 11.65471 20222 ft 412 kts 300°
2026-05-04 02:44 51.94448 11.61640 20893 ft 415 kts 300°
2026-05-04 02:44 51.96088 11.57771 21551 ft 418 kts 300°
2026-05-04 02:44 51.97741 11.53869 22189 ft 422 kts 300°
2026-05-04 02:44 51.99408 11.49931 22833 ft 425 kts 300°
2026-05-04 02:45 52.01088 11.45955 23459 ft 429 kts 300°
2026-05-04 02:45 52.02779 11.41945 24000 ft 432 kts 300°
2026-05-04 02:45 52.04349 11.37793 24489 ft 431 kts 293°
2026-05-04 02:45 52.05591 11.33364 25006 ft 431 kts 288°
2026-05-04 02:46 52.06581 11.28771 25596 ft 430 kts 282°
2026-05-04 02:46 52.07277 11.24055 26118 ft 431 kts 279°
2026-05-04 02:46 52.07900 11.19337 26579 ft 435 kts 279°
2026-05-04 02:46 52.08534 11.14507 27043 ft 438 kts 279°
2026-05-04 02:47 52.09180 11.09647 27513 ft 442 kts 279°
2026-05-04 02:47 52.09839 11.04754 28002 ft 444 kts 279°
2026-05-04 02:47 52.10506 10.99831 28457 ft 447 kts 279°
2026-05-04 02:47 52.11178 10.94878 28892 ft 450 kts 279°
2026-05-04 02:48 52.11852 10.89883 29299 ft 453 kts 279°
2026-05-04 02:48 52.12420 10.84840 29755 ft 452 kts 275°
2026-05-04 02:48 52.12707 10.79782 30370 ft 447 kts 270°
2026-05-04 02:48 52.12707 10.74741 30856 ft 444 kts 266°
2026-05-04 02:49 52.12588 10.69725 31254 ft 444 kts 265°
2026-05-04 02:49 52.12467 10.64703 31662 ft 444 kts 265°
2026-05-04 02:49 52.12349 10.59686 32057 ft 444 kts 265°
2026-05-04 02:49 52.12234 10.54672 32477 ft 443 kts 265°
2026-05-04 02:50 52.12121 10.49676 32888 ft 442 kts 265°
2026-05-04 02:50 52.12009 10.44670 33274 ft 442 kts 265°
2026-05-04 02:50 52.11897 10.39678 33645 ft 442 kts 265°
2026-05-04 02:50 52.11783 10.34683 33913 ft 444 kts 265°
2026-05-04 02:51 52.11545 10.24562 33947 ft 448 kts 265°
2026-05-04 02:51 52.11304 10.14497 33949 ft 444 kts 265°
2026-05-04 02:52 52.11054 10.04482 33954 ft 442 kts 265°
2026-05-04 02:52 52.10794 9.94486 33951 ft 442 kts 264°
2026-05-04 02:53 52.10526 9.84502 33966 ft 442 kts 264°
2026-05-04 02:53 52.10249 9.74491 33956 ft 444 kts 264°
2026-05-04 02:54 52.09963 9.64434 33951 ft 446 kts 264°
2026-05-04 02:54 52.09667 9.54348 33948 ft 448 kts 264°
2026-05-04 02:55 52.09205 9.39153 33953 ft 449 kts 264°
2026-05-04 02:56 52.08885 9.29015 33944 ft 449 kts 264°
2026-05-04 02:56 52.08559 9.18886 33945 ft 449 kts 264°
2026-05-04 02:57 52.08223 9.08761 33943 ft 448 kts 264°
2026-05-04 02:57 52.07879 8.98644 33944 ft 447 kts 263°
2026-05-04 02:58 52.07526 8.88563 33950 ft 447 kts 263°
2026-05-04 02:58 52.07165 8.78477 33958 ft 446 kts 264°
2026-05-04 02:59 52.06796 8.68415 33947 ft 446 kts 263°
2026-05-04 02:59 52.06420 8.58376 33961 ft 445 kts 263°
2026-05-04 03:00 52.06034 8.48345 33962 ft 445 kts 263°
2026-05-04 03:00 52.05641 8.38324 33966 ft 444 kts 263°
2026-05-04 03:01 52.05240 8.28306 33967 ft 444 kts 264°
2026-05-04 03:01 52.04831 8.18316 33962 ft 442 kts 264°
2026-05-04 03:02 52.04416 8.08364 33963 ft 441 kts 264°
2026-05-04 03:02 52.03993 7.98438 33967 ft 440 kts 263°
2026-05-04 03:03 52.03562 7.88530 33967 ft 440 kts 263°
2026-05-04 03:03 52.03126 7.78695 33970 ft 440 kts 263°
2026-05-04 03:04 52.02679 7.68803 33962 ft 440 kts 263°
2026-05-04 03:04 52.02223 7.58899 33971 ft 440 kts 263°
2026-05-04 03:05 52.01760 7.49000 33973 ft 440 kts 263°
2026-05-04 03:05 52.01286 7.39082 33964 ft 441 kts 263°
2026-05-04 03:06 52.00804 7.29157 33970 ft 441 kts 263°
2026-05-04 03:06 52.00315 7.19248 33955 ft 440 kts 263°
2026-05-04 03:07 51.99818 7.09357 33955 ft 439 kts 263°
2026-05-04 03:07 51.99314 6.99484 33949 ft 439 kts 263°
2026-05-04 03:08 51.98802 6.89629 33950 ft 438 kts 263°
2026-05-04 03:08 51.98282 6.79789 33958 ft 438 kts 263°
2026-05-04 03:09 51.97755 6.69966 33959 ft 437 kts 263°
2026-05-04 03:09 51.97221 6.60159 33953 ft 436 kts 263°
2026-05-04 03:10 51.96679 6.50371 33941 ft 436 kts 263°
2026-05-04 03:10 51.96130 6.40584 33940 ft 436 kts 263°
2026-05-04 03:11 51.95572 6.30804 33950 ft 435 kts 263°
2026-05-04 03:11 51.95008 6.21063 33945 ft 433 kts 263°
2026-05-04 03:12 51.94440 6.11380 33945 ft 431 kts 263°
2026-05-04 03:12 51.93866 6.01726 33945 ft 429 kts 263°
2026-05-04 03:13 51.93285 5.92106 33951 ft 429 kts 263°
2026-05-04 03:13 51.92697 5.82492 33968 ft 429 kts 262°
2026-05-04 03:14 51.92102 5.72893 33956 ft 428 kts 262°
2026-05-04 03:14 51.91500 5.63319 33950 ft 427 kts 262°
2026-05-04 03:15 51.90890 5.53761 33939 ft 427 kts 262°
2026-05-04 03:15 51.90274 5.44194 33940 ft 427 kts 262°
2026-05-04 03:16 51.89649 5.34624 33960 ft 428 kts 262°
2026-05-04 03:16 51.89122 5.26648 33948 ft 429 kts 262°
2026-05-04 03:17 51.88376 5.15504 33943 ft 429 kts 262°
2026-05-04 03:17 51.87725 5.05909 33944 ft 429 kts 261°
2026-05-04 03:18 51.87175 4.97878 33947 ft 428 kts 261°
2026-05-04 03:18 51.86511 4.88309 33946 ft 428 kts 261°
2026-05-04 03:19 51.85842 4.78767 33947 ft 428 kts 261°
2026-05-04 03:19 51.85162 4.69203 33947 ft 428 kts 261°
2026-05-04 03:20 51.84480 4.59710 33940 ft 428 kts 261°
2026-05-04 03:20 51.83786 4.50152 33936 ft 428 kts 261°
2026-05-04 03:21 51.83084 4.40603 33941 ft 428 kts 261°
2026-05-04 03:21 51.82373 4.31044 33936 ft 428 kts 261°
2026-05-04 03:22 51.81655 4.21490 33938 ft 428 kts 261°
2026-05-04 03:22 51.80929 4.11937 33943 ft 428 kts 261°
2026-05-04 03:23 51.80196 4.02391 33942 ft 428 kts 260°
2026-05-04 03:23 51.79454 3.92845 33947 ft 428 kts 260°
2026-05-04 03:24 51.78705 3.83293 33946 ft 429 kts 260°
2026-05-04 03:24 51.77945 3.73720 33955 ft 430 kts 260°
2026-05-04 03:25 51.77177 3.64138 33938 ft 431 kts 260°
2026-05-04 03:25 51.76400 3.54551 33927 ft 431 kts 260°
2026-05-04 03:26 51.75616 3.44965 33924 ft 431 kts 259°
2026-05-04 03:26 51.74824 3.35384 33956 ft 431 kts 259°
2026-05-04 03:27 51.74025 3.25802 33934 ft 431 kts 259°
2026-05-04 03:27 51.73218 3.16226 33932 ft 431 kts 259°
2026-05-04 03:28 51.72397 3.06637 33934 ft 431 kts 259°
2026-05-04 03:28 51.71569 2.97060 33936 ft 431 kts 259°
2026-05-04 03:29 51.70740 2.87536 33951 ft 432 kts 259°
2026-05-04 03:29 51.69892 2.77879 33943 ft 433 kts 259°
2026-05-04 03:30 51.69045 2.68324 33947 ft 434 kts 259°
2026-05-04 03:30 51.68185 2.58708 33942 ft 434 kts 259°
2026-05-04 03:31 51.67317 2.49084 33940 ft 434 kts 259°
2026-05-04 03:31 51.66422 2.39467 33955 ft 435 kts 258°
2026-05-04 03:32 51.65510 2.29822 33951 ft 436 kts 258°
2026-05-04 03:32 51.64595 2.20160 33948 ft 437 kts 258°
2026-05-04 03:33 51.63670 2.10481 33944 ft 438 kts 258°
2026-05-04 03:33 51.62791 2.00774 33949 ft 438 kts 259°
2026-05-04 03:34 51.61908 1.91060 33969 ft 439 kts 259°
2026-05-04 03:34 51.60998 1.81335 33957 ft 440 kts 258°
2026-05-04 03:35 51.60083 1.71585 33955 ft 441 kts 258°
2026-05-04 03:35 51.59305 1.61781 33958 ft 444 kts 263°
2026-05-04 03:36 51.59452 1.51816 33960 ft 448 kts 271°
2026-05-04 03:36 51.59920 1.41893 33970 ft 448 kts 270°
2026-05-04 03:37 51.60347 1.31882 33964 ft 449 kts 270°
2026-05-04 03:37 51.60750 1.21844 33962 ft 450 kts 270°
2026-05-04 03:38 51.61137 1.11781 33965 ft 451 kts 270°
2026-05-04 03:38 51.61518 1.01709 33964 ft 451 kts 270°
2026-05-04 03:39 51.61892 0.91628 33965 ft 453 kts 270°
2026-05-04 03:39 51.62312 0.81486 33968 ft 455 kts 271°
2026-05-04 03:40 51.62725 0.71296 33962 ft 457 kts 270°
2026-05-04 03:40 51.63019 0.61063 33963 ft 458 kts 270°
2026-05-04 03:41 51.63405 0.50805 33961 ft 459 kts 270°
2026-05-04 03:41 51.63766 0.40540 33957 ft 460 kts 270°
2026-05-04 03:42 51.64111 0.30239 33965 ft 461 kts 270°
2026-05-04 03:42 51.64575 0.19925 33955 ft 464 kts 276°
2026-05-04 03:43 51.66158 0.09807 33972 ft 469 kts 285°
2026-05-04 03:43 51.68758 0.00119 33967 ft 472 kts 291°
2026-05-04 03:44 51.71536 -0.09488 33993 ft 474 kts 291°
2026-05-04 03:44 51.74277 -0.19170 33995 ft 475 kts 291°
2026-05-04 03:45 51.76991 -0.28897 33993 ft 476 kts 291°
2026-05-04 03:45 51.79761 -0.38596 33955 ft 476 kts 297°
2026-05-04 03:45 51.81788 -0.42877 33978 ft 483 kts 314°
2026-05-04 03:46 51.84495 -0.46101 33958 ft 485 kts 328°
2026-05-04 03:46 51.90384 -0.51506 33969 ft 488 kts 327°
2026-05-04 03:47 51.96233 -0.57117 33977 ft 490 kts 326°
2026-05-04 03:47 52.02033 -0.62806 33970 ft 491 kts 326°